Weather History for Big Rapids, MI

Change the Weather History Date:

Saturday, February 22, 2014

  Actual Average Record
Temperature  
Mean Temperature 24 °F -  
Max Temperature 30 °F 36 °F 58 °F (1984)
Min Temperature 20 °F 18 °F -11 °F (1978)
Degree Days  
Heating Degree Days 40    
Moisture  
Dew Point 14 °F    
Average Humidity 65    
Maximum Humidity 74    
Minimum Humidity 49    
Precipitation  
Precipitation 0.00 in - - ()
Sea Level Pressure  
Sea Level Pressure 29.78 in    
Wind  
Wind Speed 17 mph (WSW)    
Max Wind Speed 26 mph    
Max Gust Speed 34 mph    
Visibility 9 miles    
Events      
Averages and records for this station are not official NWS values.
T = Trace of Precipitation, MM = Missing Value Source: NWS Daily Summary

Daily Weather History Graph

Daily Weather History Graph

Search for Another Location

Airport:

Trip Planner

Search our weather history database for the weather conditions in past years. The results will help you decide how hot, cold, wet, or windy it might be!

Date:

Astronomy

Feb. 22, 2014 Rise Set
Actual Time 7:30 AM EST 6:21 PM EST
Civil Twilight 7:00 AM EST 6:50 PM EST
Nautical Twilight 6:27 AM EST 7:24 PM EST
Astronomical Twilight 5:54 AM EST 7:57 PM EST
Moon 1:29 AM EST 11:26 AM EST
Length of Visible Light 11h 49m
Length of Day
10h 51m
Waning Gibbous, 50% of the Moon is Illuminated
Feb 22
Waning Gibbous
Feb 22
Last Quarter
Mar 1
New
Mar 8
First Quarter
Mar 16
Full

Hourly Weather History & Observations

Time (EST) Temp. Windchill Dew Point Humidity Pressure Visibility Wind Dir Wind Speed Gust Speed Precip Events Conditions
12:15 AM 24.1 °F 11.0 °F 14.5 °F 67% 29.61 in 10.0 mi WSW 16.1 mph 23.0 mph N/A   Overcast
12:35 AM 23.9 °F 9.1 °F 14.7 °F 68% 29.61 in 7.0 mi West 20.7 mph 31.1 mph N/A   Overcast
12:54 AM 23.7 °F 9.3 °F 14.5 °F 68% 29.62 in 7.0 mi West 19.6 mph 27.6 mph N/A   Mostly Cloudy
1:15 AM 23.0 °F 8.0 °F 14.4 °F 70% 29.62 in 7.0 mi WSW 20.7 mph 28.8 mph N/A   Scattered Clouds
1:35 AM 22.6 °F 9.2 °F 14.0 °F 69% 29.63 in 10.0 mi WSW 16.1 mph 26.5 mph N/A   Scattered Clouds
1:55 AM 22.1 °F 8.5 °F 14.0 °F 71% 29.63 in 10.0 mi WSW 16.1 mph 21.9 mph N/A   Clear
2:15 AM 21.9 °F 8.2 °F 14.0 °F 72% 29.64 in 10.0 mi WSW 16.1 mph 25.3 mph N/A   Clear
2:35 AM 21.7 °F 9.0 °F 14.2 °F 73% 29.64 in 10.0 mi WSW 13.8 mph 21.9 mph N/A   Clear
2:55 AM 21.6 °F 8.2 °F 14.0 °F 73% 29.64 in 10.0 mi WSW 15.0 mph 21.9 mph N/A   Clear
3:15 AM 21.2 °F 7.8 °F 14.0 °F 74% 29.64 in 10.0 mi WSW 15.0 mph 20.7 mph N/A   Clear
3:35 AM 20.8 °F 6.4 °F 13.8 °F 74% 29.64 in 10.0 mi WSW 17.3 mph 24.2 mph N/A   Clear
3:55 AM 20.8 °F 5.9 °F 13.6 °F 74% 29.64 in 10.0 mi WSW 18.4 mph 23.0 mph N/A   Clear
4:15 AM 20.8 °F 6.8 °F 13.5 °F 73% 29.64 in 10.0 mi WSW 16.1 mph 23.0 mph N/A   Clear
4:35 AM 20.3 °F 5.7 °F 13.1 °F 74% 29.65 in 10.0 mi WSW 17.3 mph 21.9 mph N/A   Clear
4:55 AM 20.3 °F 5.2 °F 13.3 °F 74% 29.65 in 10.0 mi WSW 18.4 mph 25.3 mph N/A   Clear
5:15 AM 20.3 °F 6.6 °F 13.1 °F 74% 29.66 in 10.0 mi West 15.0 mph 23.0 mph N/A   Clear
5:35 AM 20.3 °F 7.2 °F 13.1 °F 74% 29.67 in 10.0 mi West 13.8 mph 24.2 mph N/A   Clear
5:55 AM 20.5 °F 4.6 °F 13.1 °F 73% 29.69 in 10.0 mi West 20.7 mph 25.3 mph N/A   Mostly Cloudy
6:15 AM 21.2 °F 6.4 °F 13.6 °F 73% 29.69 in 10.0 mi West 18.4 mph 26.5 mph N/A   Overcast
6:35 AM 21.2 °F 6.8 °F 13.3 °F 72% 29.70 in 10.0 mi West 17.3 mph 28.8 mph N/A   Overcast
6:55 AM 21.6 °F 6.5 °F 13.5 °F 71% 29.70 in 7.0 mi West 19.6 mph 27.6 mph N/A   Overcast
7:15 AM 21.2 °F 6.4 °F 13.3 °F 72% 29.71 in 7.0 mi West 18.4 mph 31.1 mph N/A   Overcast
7:35 AM 21.0 °F 7.1 °F 13.1 °F 71% 29.73 in 10.0 mi West 16.1 mph 24.2 mph N/A   Overcast
7:55 AM 20.8 °F 8.4 °F 12.9 °F 71% 29.74 in 10.0 mi West 12.7 mph 24.2 mph N/A   Mostly Cloudy
8:15 AM 20.7 °F 6.1 °F 13.1 °F 73% 29.75 in 10.0 mi West 17.3 mph 23.0 mph N/A   Mostly Cloudy
8:35 AM 21.2 °F 6.4 °F 13.5 °F 72% 29.75 in 10.0 mi West 18.4 mph 26.5 mph N/A   Mostly Cloudy
8:55 AM 21.9 °F 6.5 °F 13.6 °F 70% 29.76 in 10.0 mi West 20.7 mph 28.8 mph N/A   Scattered Clouds
9:15 AM 22.5 °F 6.9 °F 13.8 °F 69% 29.77 in 7.0 mi West 21.9 mph 32.2 mph N/A   Scattered Clouds
9:35 AM 23.0 °F 6.6 °F 14.0 °F 68% 29.77 in 4.0 mi West 25.3 mph 33.4 mph N/A   Haze
9:55 AM 23.7 °F 7.9 °F 13.8 °F 66% 29.78 in 5.0 mi West 24.2 mph 34.5 mph N/A   Haze
10:15 AM 24.4 °F 12.4 °F 14.2 °F 65% 29.78 in 7.0 mi West 13.8 mph 29.9 mph N/A   Clear
10:35 AM 25.3 °F 9.7 °F 13.8 °F 62% 29.78 in 10.0 mi WSW 25.3 mph 28.8 mph N/A   Clear
10:55 AM 26.4 °F 12.8 °F 13.8 °F 59% 29.80 in 7.0 mi WSW 19.6 mph 32.2 mph N/A   Clear
11:14 AM 26.2 °F 12.2 °F 14.0 °F 60% 29.80 in 7.0 mi WSW 20.7 mph 32.2 mph N/A   Clear
11:35 AM 26.2 °F 10.6 °F 14.5 °F 61% 29.81 in 5.0 mi WSW 26.5 mph 33.4 mph N/A   Haze
11:55 AM 27.3 °F 15.6 °F 14.5 °F 59% 29.81 in 10.0 mi West 15.0 mph 25.3 mph N/A   Clear
12:14 PM 27.3 °F 14.0 °F 14.9 °F 60% 29.82 in 10.0 mi WSW 19.6 mph 27.6 mph N/A   Clear
12:35 PM 27.5 °F 13.9 °F 14.2 °F 57% 29.82 in 10.0 mi WSW 20.7 mph 31.1 mph N/A   Clear
12:55 PM 28.4 °F 14.4 °F 14.0 °F 55% 29.82 in 10.0 mi WSW 23.0 mph 29.9 mph N/A   Clear
1:15 PM 28.6 °F 15.0 °F 13.8 °F 54% 29.82 in 7.0 mi WSW 21.9 mph 32.2 mph N/A   Clear
1:35 PM 29.3 °F 16.6 °F 14.0 °F 53% 29.82 in 10.0 mi West 19.6 mph 27.6 mph N/A   Clear
1:55 PM 29.1 °F 16.0 °F 12.7 °F 50% 29.82 in 10.0 mi West 20.7 mph 27.6 mph N/A   Clear
2:15 PM 29.7 °F 16.7 °F 13.3 °F 51% 29.82 in 10.0 mi WSW 20.7 mph 27.6 mph N/A   Clear
2:35 PM 29.1 °F 16.0 °F 12.2 °F 49% 29.82 in 10.0 mi WSW 20.7 mph 29.9 mph N/A   Clear
2:55 PM 29.5 °F 16.8 °F 12.4 °F 49% 29.84 in 10.0 mi West 19.6 mph 26.5 mph N/A   Clear
3:15 PM 29.3 °F 15.9 °F 13.1 °F 51% 29.83 in 10.0 mi West 21.9 mph 29.9 mph N/A   Clear
3:35 PM 28.6 °F 16.4 °F 13.1 °F 52% 29.84 in 10.0 mi WSW 17.3 mph 26.5 mph N/A   Scattered Clouds
3:55 PM 28.8 °F 17.0 °F 13.3 °F 52% 29.84 in 10.0 mi West 16.1 mph 28.8 mph N/A   Scattered Clouds
4:15 PM 28.4 °F 15.8 °F 13.5 °F 54% 29.84 in 10.0 mi WSW 18.4 mph 27.6 mph N/A   Clear
4:35 PM 28.4 °F 16.2 °F 13.6 °F 54% 29.84 in 10.0 mi WSW 17.3 mph 23.0 mph N/A   Clear
4:55 PM 28.2 °F 16.8 °F 13.6 °F 54% 29.84 in 10.0 mi WSW 15.0 mph 23.0 mph N/A   Clear
5:15 PM 27.9 °F 15.9 °F 13.8 °F 56% 29.85 in 10.0 mi WSW 16.1 mph 21.9 mph N/A   Clear
5:35 PM 27.3 °F 14.8 °F 14.4 °F 58% 29.85 in 10.0 mi WSW 17.3 mph 21.9 mph N/A   Clear
5:55 PM 26.6 °F 14.3 °F 14.0 °F 59% 29.85 in 10.0 mi WSW 16.1 mph - N/A   Clear
6:15 PM 26.1 °F 13.6 °F 13.8 °F 60% 29.86 in 10.0 mi WSW 16.1 mph 21.9 mph N/A   Clear
6:35 PM 25.7 °F 15.7 °F 14.0 °F 61% 29.86 in 10.0 mi WSW 10.4 mph 17.3 mph N/A   Clear
6:54 PM 25.0 °F 14.8 °F 14.4 °F 64% 29.86 in 10.0 mi SW 10.4 mph - N/A   Clear
7:15 PM 24.4 °F 16.5 °F 14.5 °F 66% 29.87 in 10.0 mi WSW 6.9 mph - N/A   Clear
7:35 PM 24.1 °F 15.2 °F 14.7 °F 68% 29.88 in 10.0 mi WSW 8.1 mph - N/A   Clear
7:54 PM 23.7 °F 14.7 °F 14.7 °F 69% 29.88 in 10.0 mi WSW 8.1 mph - N/A   Clear
8:15 PM 23.2 °F 15.0 °F 14.7 °F 70% 29.88 in 10.0 mi WSW 6.9 mph - N/A   Clear
8:35 PM 22.6 °F 13.4 °F 14.5 °F 71% 29.88 in 10.0 mi WSW 8.1 mph - N/A   Clear
8:55 PM 22.1 °F 12.0 °F 14.2 °F 72% 29.89 in 10.0 mi WSW 9.2 mph - N/A   Clear
9:15 PM 22.8 °F 11.5 °F 14.0 °F 69% 29.89 in 10.0 mi WSW 11.5 mph - N/A   Clear
9:35 PM 23.0 °F 12.4 °F 13.1 °F 66% 29.90 in 10.0 mi West 10.4 mph - N/A   Clear
9:55 PM 22.6 °F 11.9 °F 12.6 °F 65% 29.90 in 10.0 mi West 10.4 mph - N/A   Clear
10:15 PM 22.3 °F 11.5 °F 12.2 °F 65% 29.91 in 10.0 mi West 10.4 mph - N/A   Clear
10:35 PM 22.6 °F 11.9 °F 11.7 °F 63% 29.91 in 10.0 mi West 10.4 mph - N/A   Clear
10:55 PM 22.1 °F 11.3 °F 11.3 °F 63% 29.91 in 10.0 mi West 10.4 mph - N/A   Clear
11:15 PM 21.6 °F 12.1 °F 11.1 °F 64% 29.91 in 10.0 mi WSW 8.1 mph - N/A   Clear
11:35 PM 21.4 °F 10.4 °F 11.1 °F 65% 29.91 in 10.0 mi West 10.4 mph - N/A   Clear
11:55 PM 20.8 °F 11.2 °F 10.9 °F 66% 29.92 in 10.0 mi West 8.1 mph - N/A   Clear